When you browse on this site, cookies collect data to enhance your experience and personalize the content and advertising you see.
Visit our Privacy Policy to learn more. By continuing to use the site, you agree to this use of cookies and data.
  • In Netherlands
  • List of Countries
  • For 7 days
  • Water Temperature
  • Weather Map
  • Weather Widgets
  • user-avatar
    Login

    Hourly Weather Bakni

    Today, 19 October, Saturday

    Time Temperature Precipitation Wind Pressure Humidity
    00:00 +11°C° 0 mm 1 mps 638 mmHg 51%
    01:00 +11°C° 0 mm 1 mps 638 mmHg 51%
    02:00 +11°C° 0 mm 1 mps 638 mmHg 51%
    03:00 +11°C° 0 mm 1 mps 638 mmHg 51%
    04:00 +11°C° 0 mm 1 mps 638 mmHg 51%
    05:00 +11°C° 0 mm 1 mps 638 mmHg 50%
    06:00 +10°C° 0 mm 1 mps 638 mmHg 49%
    07:00 +12°C° 0 mm 1 mps 639 mmHg 46%
    08:00 +14°C° 0 mm 1 mps 640 mmHg 42%
    09:00 +16°C° 0 mm 1 mps 641 mmHg 39%
    10:00 +18°C° 0 mm 1 mps 641 mmHg 40%
    11:00 +17°C° 0 mm 2 mps 641 mmHg 41%
    12:00 +18°C° 0 mm 2 mps 641 mmHg 42%
    13:00 +17°C° 0.1 mm 2 mps 641 mmHg 47%
    14:00 +17°C° 0.1 mm 2 mps 640 mmHg 52%
    15:00 +16°C° 0.1 mm 2 mps 640 mmHg 57%
    16:00 +15°C° 0.2 mm 1 mps 640 mmHg 65%
    17:00 +13°C° 0.2 mm 1 mps 640 mmHg 72%
    18:00 +11°C° 0.2 mm 0 mps 639 mmHg 79%
    19:00 +11°C° 0 mm 0 mps 639 mmHg 79%
    20:00 +10°C° 0 mm 0 mps 640 mmHg 78%
    21:00 +10°C° 0 mm 0 mps 640 mmHg 78%
    22:00 +11°C° 0 mm 1 mps 640 mmHg 76%
    23:00 +10°C° 0 mm 1 mps 640 mmHg 75%

    Tomorrow, 20 October, Sunday

    Time Temperature Precipitation Wind Pressure Humidity
    00:00 +10°C° 0 mm 1 mps 640 mmHg 74%
    01:00 +10°C° 0 mm 1 mps 640 mmHg 73%
    02:00 +10°C° 0 mm 1 mps 640 mmHg 72%
    03:00 +10°C° 0 mm 1 mps 640 mmHg 72%
    04:00 +9°C° 0 mm 1 mps 640 mmHg 71%
    05:00 +9°C° 0 mm 1 mps 640 mmHg 71%
    06:00 +9°C° 0 mm 1 mps 640 mmHg 71%
    07:00 +11°C° 0 mm 1 mps 641 mmHg 66%
    08:00 +13°C° 0 mm 1 mps 641 mmHg 61%
    09:00 +14°C° 0 mm 1 mps 642 mmHg 56%
    10:00 +15°C° 0 mm 2 mps 642 mmHg 56%
    11:00 +15°C° 0 mm 2 mps 643 mmHg 57%
    12:00 +16°C° 0 mm 3 mps 643 mmHg 57%
    13:00 +15°C° 0.2 mm 2 mps 642 mmHg 62%
    14:00 +15°C° 0.2 mm 2 mps 642 mmHg 66%
    15:00 +14°C° 0.2 mm 2 mps 642 mmHg 71%
    16:00 +13°C° 0.2 mm 1 mps 641 mmHg 78%
    17:00 +11°C° 0.2 mm 1 mps 641 mmHg 85%
    18:00 +9°C° 0.2 mm 0 mps 641 mmHg 92%
    19:00 +9°C° 0 mm 0 mps 641 mmHg 91%
    20:00 +8°C° 0 mm 0 mps 641 mmHg 91%
    21:00 +8°C° 0 mm 0 mps 641 mmHg 90%
    22:00 +8°C° 0 mm 0 mps 641 mmHg 89%
    23:00 +8°C° 0 mm 0 mps 641 mmHg 89%

    Day after tomorrow, 21 October, Monday

    Time Temperature Precipitation Wind Pressure Humidity
    00:00 +8°C° 0 mm 0 mps 641 mmHg 88%
    01:00 +7°C° 0 mm 0 mps 640 mmHg 87%
    02:00 +7°C° 0 mm 0 mps 640 mmHg 86%
    03:00 +7°C° 0 mm 0 mps 640 mmHg 85%
    04:00 +7°C° 0 mm 0 mps 640 mmHg 84%
    05:00 +7°C° 0 mm 0 mps 640 mmHg 83%
    06:00 +7°C° 0 mm 0 mps 640 mmHg 82%
    07:00 +9°C° 0 mm 1 mps 641 mmHg 76%
    08:00 +11°C° 0 mm 1 mps 642 mmHg 70%
    09:00 +13°C° 0 mm 1 mps 642 mmHg 65%
    10:00 +13°C° 0 mm 2 mps 642 mmHg 64%
    11:00 +14°C° 0 mm 2 mps 643 mmHg 63%
    12:00 +14°C° 0 mm 2 mps 643 mmHg 63%
    13:00 +14°C° 0 mm 2 mps 642 mmHg 66%
    14:00 +13°C° 0 mm 2 mps 642 mmHg 70%
    15:00 +13°C° 0 mm 2 mps 642 mmHg 74%
    16:00 +11°C° 0 mm 1 mps 641 mmHg 80%
    17:00 +10°C° 0 mm 1 mps 641 mmHg 86%
    18:00 +8°C° 0 mm 0 mps 640 mmHg 93%
    19:00 +8°C° 0 mm 0 mps 640 mmHg 91%
    20:00 +7°C° 0 mm 0 mps 640 mmHg 90%
    21:00 +7°C° 0 mm 0 mps 640 mmHg 89%
    22:00 +7°C° 0 mm 0 mps 640 mmHg 88%
    23:00 +7°C° 0 mm 0 mps 640 mmHg 88%

    22 October, Tuesday

    Time Temperature Precipitation Wind Pressure Humidity
    00:00 +7°C° 0 mm 0 mps 640 mmHg 87%
    01:00 +7°C° 0 mm 0 mps 640 mmHg 85%
    02:00 +7°C° 0 mm 0 mps 639 mmHg 84%
    03:00 +8°C° 0 mm 1 mps 639 mmHg 82%
    04:00 +6°C° 0 mm 0 mps 639 mmHg 81%
    05:00 +6°C° 0 mm 0 mps 639 mmHg 79%
    06:00 +6°C° 0 mm 0 mps 639 mmHg 78%
    07:00 +9°C° 0 mm 1 mps 640 mmHg 73%
    08:00 +10°C° 0 mm 1 mps 641 mmHg 69%
    09:00 +12°C° 0 mm 1 mps 642 mmHg 64%
    10:00 +13°C° 0 mm 2 mps 642 mmHg 64%
    11:00 +14°C° 0 mm 2 mps 642 mmHg 64%
    12:00 +14°C° 0 mm 2 mps 642 mmHg 63%
    13:00 +14°C° 0 mm 2 mps 642 mmHg 67%
    14:00 +13°C° 0 mm 2 mps 641 mmHg 70%
    15:00 +13°C° 0 mm 2 mps 641 mmHg 74%
    16:00 +11°C° 0 mm 1 mps 641 mmHg 80%
    17:00 +10°C° 0 mm 1 mps 640 mmHg 87%
    18:00 +8°C° 0 mm 0 mps 640 mmHg 93%
    19:00 +8°C° 0 mm 0 mps 640 mmHg 92%
    20:00 +7°C° 0 mm 0 mps 640 mmHg 91%
    21:00 +7°C° 0 mm 0 mps 640 mmHg 89%
    22:00 +7°C° 0 mm 0 mps 640 mmHg 88%
    23:00 +7°C° 0 mm 0 mps 640 mmHg 86%

    23 October, Wednesday

    Time Temperature Precipitation Wind Pressure Humidity
    00:00 +8°C° 0 mm 1 mps 640 mmHg 84%
    01:00 +8°C° 0 mm 1 mps 640 mmHg 81%
    02:00 +8°C° 0 mm 1 mps 640 mmHg 77%
    03:00 +8°C° 0 mm 1 mps 639 mmHg 74%
    04:00 +8°C° 0 mm 1 mps 639 mmHg 71%
    05:00 +7°C° 0 mm 1 mps 639 mmHg 68%
    06:00 +7°C° 0 mm 1 mps 639 mmHg 65%
    07:00 +9°C° 0 mm 1 mps 640 mmHg 60%
    08:00 +11°C° 0 mm 1 mps 641 mmHg 56%
    09:00 +13°C° 0 mm 1 mps 642 mmHg 52%
    10:00 +14°C° 0 mm 1 mps 642 mmHg 52%
    11:00 +14°C° 0 mm 2 mps 642 mmHg 52%
    12:00 +15°C° 0 mm 2 mps 642 mmHg 53%
    13:00 +15°C° 0 mm 2 mps 642 mmHg 56%
    14:00 +15°C° 0 mm 2 mps 641 mmHg 60%
    15:00 +14°C° 0 mm 2 mps 641 mmHg 64%
    16:00 +13°C° 0 mm 1 mps 641 mmHg 72%
    17:00 +11°C° 0 mm 1 mps 640 mmHg 80%
    18:00 +8°C° 0 mm 0 mps 640 mmHg 88%
    19:00 +8°C° 0 mm 0 mps 640 mmHg 86%
    20:00 +8°C° 0 mm 0 mps 640 mmHg 84%
    21:00 +8°C° 0 mm 0 mps 640 mmHg 82%
    22:00 +8°C° 0 mm 0 mps 640 mmHg 80%
    23:00 +8°C° 0 mm 1 mps 640 mmHg 78%

    24 October, Thursday

    Time Temperature Precipitation Wind Pressure Humidity
    00:00 +8°C° 0 mm 1 mps 640 mmHg 76%
    01:00 +8°C° 0 mm 1 mps 640 mmHg 74%
    02:00 +8°C° 0 mm 1 mps 640 mmHg 72%
    03:00 +8°C° 0 mm 1 mps 640 mmHg 70%
    04:00 +8°C° 0 mm 1 mps 640 mmHg 66%
    05:00 +8°C° 0 mm 1 mps 640 mmHg 63%
    06:00 +8°C° 0 mm 1 mps 640 mmHg 60%
    07:00 +10°C° 0 mm 1 mps 640 mmHg 56%
    08:00 +11°C° 0 mm 1 mps 641 mmHg 51%
    09:00 +13°C° 0 mm 1 mps 642 mmHg 47%
    10:00 +14°C° 0 mm 1 mps 642 mmHg 48%
    11:00 +15°C° 0 mm 2 mps 642 mmHg 50%
    12:00 +16°C° 0 mm 2 mps 642 mmHg 51%
    13:00 +15°C° 0 mm 2 mps 642 mmHg 56%
    14:00 +15°C° 0 mm 2 mps 641 mmHg 61%
    15:00 +14°C° 0 mm 2 mps 641 mmHg 66%
    16:00 +13°C° 0 mm 1 mps 641 mmHg 73%
    17:00 +11°C° 0 mm 1 mps 640 mmHg 80%
    18:00 +9°C° 0 mm 0 mps 640 mmHg 87%
    19:00 +9°C° 0 mm 0 mps 640 mmHg 86%
    20:00 +8°C° 0 mm 0 mps 640 mmHg 84%
    21:00 +8°C° 0 mm 0 mps 640 mmHg 82%
    22:00 +8°C° 0 mm 0 mps 640 mmHg 81%
    23:00 +8°C° 0 mm 0 mps 640 mmHg 80%
    Show more